{"data":{"norad_id":67560,"epoch":"2026-05-25T02:59:50.513280Z","epoch_age_seconds":68271,"freshness":"FRESH","line1":"1 67560U 26014AA  26145.12489020  .00014604  00000+0  45356-3 0  9991","line2":"2 67560  97.2873  32.2684 0001641  93.3993 266.7437 15.33460997 20492","mean_motion":15.33460997,"eccentricity":0.0001641,"inclination_deg":97.2873,"raan_deg":32.2684,"arg_perigee_deg":93.3993,"mean_anomaly_deg":266.7437,"bstar":0.00045356,"rev_number":2049,"period_min":93.905225031296,"perigee_km":464.37253896852,"apogee_km":466.61861918097,"semimajor_km":6843.6325790747,"source":"CELESTRAK","updated_at":"2026-05-25T13:38:21.612123Z"}}